Volver al catálogo

COSMOS 970 DEB

ActivoLEO
NORAD 64994·DEBRIS·🇷🇺 Russia

Lanzado Dec 21, 1977 desde Baikonur Cosmodrome

Loading…

Próximos Pases (próximas 24 horas)

TLE

EnvejeciendoSource: Space-Track

Época: Sep 9, 2026, 10:48 UTC

1 64994U 77121DF  26252.45035737  .00000094  00000-0  17685-3 0  9994
2 64994  66.1435 321.0274 0140042 122.8133 238.6508 13.71733915640315

Sigue COSMOS 970 DEB en tiempo real con AllMySat

Download on the App Store